EST,Max TemperatureF,Mean TemperatureF,Min TemperatureF,Max Dew PointF,MeanDew PointF,Min DewpointF,Max Humidity, Mean Humidity, Min Humidity, Max Sea Level PressureIn, Mean Sea Level PressureIn, Min Sea Level PressureIn, Max VisibilityMiles, Mean VisibilityMiles, Min VisibilityMiles, Max Wind SpeedMPH, Mean Wind SpeedMPH, Max Gust SpeedMPH,PrecipitationIn, CloudCover, Events, WindDirDegrees
2012-12-1,40,36,32,39,33,29,96,91,83,30.31,30.10,29.81,10,6,2,13,8,17,0.00,7,Rain,142
2012-12-2,47,42,37,47,41,36,98,94,89,30.08,29.91,29.77,10,5,2,10,5,,0.00,8,Rain,261
2012-12-3,62,47,32,57,43,32,100,93,82,30.10,29.91,29.61,10,5,1,13,4,21,0.00,7,,152
2012-12-4,61,45,29,57,33,17,86,70,55,30.12,29.88,29.63,10,10,7,20,13,33,0.00,4,,269
2012-12-5,31,25,19,24,19,16,89,71,58,30.41,30.31,30.12,10,10,5,18,10,24,0.00,4,Snow,309
2012-12-6,39,32,25,32,25,19,84,73,60,30.27,30.02,29.82,10,10,4,12,7,21,0.00,6,Rain-Snow,165
2012-12-7,40,36,32,34,28,23,81,71,61,30.00,29.93,29.81,10,10,10,12,6,17,0.00,7,,312
2012-12-8,34,31,27,28,24,18,91,75,60,30.17,30.03,29.96,10,9,2,10,5,,0.00,8,Snow,335
2012-12-9,32,29,26,28,25,21,92,82,71,30.23,30.09,29.78,10,6,1,18,7,28,0.00,7,Snow,77
2012-12-10,28,22,14,26,19,13,92,81,71,29.87,29.73,29.63,10,9,4,15,10,24,0.00,7,Snow,344
2012-12-11,30,22,15,28,20,13,94,80,66,29.94,29.90,29.87,10,9,1,13,4,18,0.00,7,Snow,172
2012-12-12,35,28,21,28,23,17,94,82,69,30.21,30.13,29.95,10,8,2,9,5,,0.00,5,Snow,220
2012-12-13,43,38,32,32,28,26,84,67,53,30.15,30.07,29.98,10,10,10,17,9,23,0.00,3,,217
2012-12-14,33,28,24,31,26,24,96,84,76,30.25,30.19,30.05,10,10,10,10,5,17,0.00,5,,334
2012-12-15,37,32,27,36,32,26,97,91,81,30.22,29.99,29.67,10,8,3,15,9,23,0.00,8,Rain-Snow,117
2012-12-16,40,38,35,40,38,35,100,100,97,29.66,29.55,29.51,10,2,0,10,3,17,0.00,8,Fog-Rain-Snow,109
2012-12-17,40,34,28,40,34,28,100,96,81,29.66,29.62,29.54,10,9,4,10,4,,0.00,7,Rain-Snow,269
2012-12-18,38,34,30,32,31,28,100,92,67,29.76,29.70,29.65,10,10,10,8,2,,0.00,8,,267
2012-12-19,39,32,26,32,29,27,100,90,65,30.10,29.96,29.76,10,10,10,8,2,,0.00,6,,225
2012-12-20,34,30,27,34,31,26,100,97,89,30.08,29.67,29.31,10,4,0,25,9,34,0.00,8,Snow,79
2012-12-21,29,26,24,29,24,20,99,86,75,29.90,29.60,29.31,10,4,0,30,18,43,0.00,8,Snow,339
2012-12-22,28,26,23,24,22,18,99,84,77,29.99,29.93,29.82,10,10,7,23,13,31,0.00,7,,282
2012-12-23,28,24,20,26,20,16,98,81,70,29.98,29.90,29.79,10,10,4,20,9,29,0.00,7,Snow,282
2012-12-24,27,24,20,24,21,18,96,87,79,30.06,29.97,29.94,10,8,2,8,3,,0.00,8,Snow,263
2012-12-25,27,24,20,20,19,15,86,78,69,30.39,30.26,30.07,10,10,10,9,6,,0.00,8,Snow,296
2012-12-26,25,22,20,19,17,15,83,76,69,30.37,30.24,30.12,10,10,10,16,8,22,0.00,7,,29
2012-12-27,24,20,15,18,14,10,95,77,65,30.16,30.13,30.10,10,10,10,10,7,,0.00,3,,342
2012-12-28,22,16,11,18,16,10,94,88,79,30.13,30.08,29.99,10,10,10,6,1,,0.00,7,,292
2012-12-29,23,20,18,22,18,16,94,88,79,30.00,29.94,29.89,10,10,10,8,4,,0.00,7,,308
2012-12-30,27,20,12,23,20,11,96,87,79,30.14,30.07,29.97,10,10,2,14,5,17,0.00,7,Snow,219
2012-12-31,32,26,18,28,19,10,89,77,64,30.01,29.88,29.78,10,9,2,22,11,30,0.00,8,Snow,271